Time,TemperatureF,DewpointF,PressureIn,WindDirection,WindDirectionDegrees,WindSpeedMPH,WindSpeedGustMPH,Humidity,HourlyPrecipIn,Conditions,Clouds,dailyrainin,SolarRadiationWatts/m^2,SoftwareType,DateUTC
2013-08-08 00:53:00,72.0,70.0,-100.00,WSW,258,0.0,0.0,93,0.00,,,0.00,0.000000,,2013-08-08 04:53:00,
2013-08-08 01:43:00,71.0,69.0,-100.00,WSW,258,0.0,0.0,94,0.00,,,0.00,0.000000,,2013-08-08 05:43:00,
2013-08-08 01:52:00,71.0,69.0,-100.00,WSW,258,0.0,0.0,94,0.00,,,0.00,0.000000,,2013-08-08 05:52:00,
2013-08-08 02:01:00,71.0,69.0,-100.00,WSW,258,0.0,0.0,94,0.00,,,0.00,0.000000,,2013-08-08 06:01:00,
2013-08-08 02:12:00,71.0,69.0,-100.00,West,259,0.0,0.0,94,0.00,,,0.00,0.000000,,2013-08-08 06:12:00,
2013-08-08 02:22:00,71.0,69.0,-100.00,WSW,258,0.0,0.0,94,0.00,,,0.00,0.000000,,2013-08-08 06:22:00,
2013-08-08 02:43:00,70.0,68.0,-100.00,WSW,258,0.0,0.0,94,0.00,,,0.00,0.000000,,2013-08-08 06:43:00,
2013-08-08 02:52:00,70.0,68.0,-100.00,WSW,258,0.0,0.0,94,0.00,,,0.00,0.000000,,2013-08-08 06:52:00,
2013-08-08 03:02:00,70.0,68.0,-100.00,WSW,258,0.0,0.0,94,0.00,,,0.00,0.000000,,2013-08-08 07:02:00,
2013-08-08 03:12:00,70.0,68.0,-100.00,West,259,0.0,0.0,95,0.00,,,0.00,0.000000,,2013-08-08 07:12:00,
2013-08-08 03:22:00,70.0,68.0,-100.00,WSW,258,0.0,0.0,95,0.00,,,0.00,0.000000,,2013-08-08 07:22:00,
2013-08-08 03:32:00,70.0,68.0,-100.00,WSW,258,0.0,0.0,95,0.00,,,0.00,0.000000,,2013-08-08 07:32:00,
2013-08-08 03:43:00,70.0,68.0,-100.00,West,259,0.0,0.0,95,0.00,,,0.00,0.000000,,2013-08-08 07:43:00,
2013-08-08 03:53:00,70.0,68.0,-100.00,West,259,0.0,0.0,95,0.00,,,0.00,0.000000,,2013-08-08 07:53:00,
2013-08-08 04:02:00,70.0,68.0,-100.00,WSW,258,0.0,0.0,95,0.00,,,0.00,0.000000,,2013-08-08 08:02:00,
2013-08-08 04:11:00,70.0,68.0,-100.00,West,259,0.0,0.0,95,0.00,,,0.00,0.000000,,2013-08-08 08:11:00,
2013-08-08 04:22:00,70.0,68.0,-100.00,WSW,258,0.0,0.0,95,0.00,,,0.00,0.000000,,2013-08-08 08:22:00,
2013-08-08 04:32:00,70.0,68.0,-100.00,WSW,258,0.0,0.0,95,0.00,,,0.00,0.000000,,2013-08-08 08:32:00,
2013-08-08 04:43:00,70.0,68.0,-100.00,WSW,258,0.0,0.0,95,0.00,,,0.00,0.000000,,2013-08-08 08:43:00,
2013-08-08 04:53:00,70.0,69.0,-100.00,WSW,258,0.0,0.0,96,0.00,,,0.00,0.000000,,2013-08-08 08:53:00,
2013-08-08 05:02:00,70.0,68.0,-100.00,WSW,258,0.0,0.0,95,0.00,,,0.00,0.000000,,2013-08-08 09:02:00,
2013-08-08 05:12:00,70.0,68.0,-100.00,WSW,258,0.0,0.0,95,0.00,,,0.00,0.000000,,2013-08-08 09:12:00,
2013-08-08 05:22:00,70.0,68.0,-100.00,WSW,258,0.0,0.0,95,0.00,,,0.00,0.000000,,2013-08-08 09:22:00,
2013-08-08 05:32:00,70.0,68.0,-100.00,WSW,258,0.0,0.0,95,0.00,,,0.00,0.000000,,2013-08-08 09:32:00,
2013-08-08 06:01:00,70.0,68.0,-100.00,WSW,258,0.0,0.0,95,0.00,,,0.00,0.000000,,2013-08-08 10:01:00,
2013-08-08 06:52:00,69.0,68.0,-100.00,WSW,258,0.0,0.0,95,0.00,,,0.00,0.000000,,2013-08-08 10:52:00,
2013-08-08 07:02:00,69.0,68.0,-100.00,West,259,0.0,0.0,96,0.00,,,0.00,0.000000,,2013-08-08 11:02:00,
2013-08-08 07:22:00,70.0,69.0,-100.00,WSW,258,0.0,0.0,96,0.00,,,0.00,7.000000,,2013-08-08 11:22:00,
2013-08-08 07:43:00,70.0,69.0,-100.00,SSW,210,0.0,4.0,96,0.00,,,0.00,19.000000,,2013-08-08 11:43:00,
2013-08-08 07:52:00,71.0,70.0,-100.00,SSW,205,0.0,4.0,96,0.00,,,0.00,25.000000,,2013-08-08 11:52:00,
2013-08-08 08:32:00,72.0,71.0,-100.00,SSE,163,1.0,2.0,96,0.00,,,0.00,134.000000,,2013-08-08 12:32:00,
2013-08-08 08:43:00,73.0,72.0,-100.00,SSW,195,1.0,4.0,96,0.00,,,0.00,246.000000,,2013-08-08 12:43:00,
2013-08-08 08:52:00,74.0,72.0,-100.00,South,174,2.0,5.0,95,0.00,,,0.00,195.000000,,2013-08-08 12:52:00,
2013-08-08 09:01:00,75.0,73.0,-100.00,SSE,157,1.0,5.0,93,0.00,,,0.00,378.000000,,2013-08-08 13:01:00,
2013-08-08 09:22:00,76.0,73.0,-100.00,West,266,1.0,5.0,89,0.00,,,0.00,183.000000,,2013-08-08 13:22:00,
2013-08-08 09:43:00,77.0,73.0,-100.00,WNW,293,3.0,7.0,87,0.00,,,0.00,230.000000,,2013-08-08 13:43:00,
2013-08-08 09:52:00,77.0,73.0,-100.00,WNW,296,4.0,6.0,87,0.00,,,0.00,237.000000,,2013-08-08 13:52:00,
2013-08-08 10:02:00,77.0,73.0,-100.00,West,266,4.0,6.0,87,0.00,,,0.00,279.000000,,2013-08-08 14:02:00,
2013-08-08 10:22:00,78.0,73.0,-100.00,SW,236,4.0,6.0,84,0.00,,,0.00,190.000000,,2013-08-08 14:22:00,
2013-08-08 10:32:00,78.0,72.0,-100.00,West,276,3.0,6.0,83,0.00,,,0.00,221.000000,,2013-08-08 14:32:00,
2013-08-08 10:43:00,78.0,73.0,-100.00,WNW,286,4.0,6.0,85,0.00,,,0.00,313.000000,,2013-08-08 14:43:00,
2013-08-08 10:53:00,78.0,73.0,-100.00,NW,316,3.0,6.0,84,0.00,,,0.00,334.000000,,2013-08-08 14:53:00,
2013-08-08 11:02:00,79.0,73.0,-100.00,West,266,0.0,4.0,83,0.00,,,0.00,373.000000,,2013-08-08 15:02:00,
2013-08-08 11:12:00,80.0,74.0,-100.00,West,266,2.0,5.0,81,0.00,,,0.00,357.000000,,2013-08-08 15:12:00,
2013-08-08 11:22:00,80.0,73.0,-100.00,West,278,2.0,5.0,79,0.00,,,0.00,366.000000,,2013-08-08 15:22:00,
2013-08-08 11:32:00,81.0,73.0,-100.00,WSW,251,3.0,5.0,78,0.00,,,0.00,519.000000,,2013-08-08 15:32:00,
2013-08-08 11:43:00,82.0,73.0,-100.00,West,262,3.0,7.0,75,0.00,,,0.00,833.000000,,2013-08-08 15:43:00,
2013-08-08 11:53:00,82.0,72.0,-100.00,West,268,3.0,10.0,73,0.00,,,0.00,840.000000,,2013-08-08 15:53:00,
2013-08-08 12:02:00,83.0,73.0,-100.00,WSW,256,3.0,9.0,71,0.00,,,0.00,953.000000,,2013-08-08 16:02:00,
2013-08-08 12:32:00,82.0,73.0,-100.00,WNW,288,3.0,7.0,75,0.00,,,0.00,993.000000,,2013-08-08 16:32:00,
2013-08-08 12:42:00,82.0,72.0,-100.00,NNW,332,4.0,7.0,72,0.00,,,0.00,967.000000,,2013-08-08 16:42:00,
2013-08-08 13:32:00,84.0,73.0,-100.00,NNW,344,4.0,8.0,70,0.00,,,0.00,882.000000,,2013-08-08 17:32:00,
2013-08-08 13:43:00,84.0,72.0,-100.00,NW,315,4.0,9.0,68,0.00,,,0.00,316.000000,,2013-08-08 17:43:00,
2013-08-08 13:52:00,84.0,72.0,-100.00,West,261,2.0,9.0,67,0.00,,,0.00,515.000000,,2013-08-08 17:52:00,
2013-08-08 14:32:00,87.0,71.0,-100.00,WNW,298,2.0,5.0,60,0.00,,,0.00,895.000000,,2013-08-08 18:32:00,
2013-08-08 14:43:00,87.0,73.0,-100.00,SSE,162,3.0,9.0,63,0.00,,,0.00,318.000000,,2013-08-08 18:43:00,
2013-08-08 14:52:00,88.0,74.0,-100.00,WSW,249,1.0,7.0,63,0.00,,,0.00,281.000000,,2013-08-08 18:52:00,
2013-08-08 15:01:00,87.0,72.0,-100.00,North,9,5.0,9.0,62,0.00,,,0.00,236.000000,,2013-08-08 19:01:00,
2013-08-08 15:12:00,85.0,75.0,-100.00,SSW,201,0.0,2.0,72,0.00,,,0.00,91.000000,,2013-08-08 19:12:00,
2013-08-08 15:43:00,82.0,73.0,-100.00,NW,320,1.0,6.0,75,0.00,,,0.00,357.000000,,2013-08-08 19:43:00,
2013-08-08 15:55:00,84.0,73.0,-100.00,WNW,287,6.0,8.0,69,0.00,,,0.00,313.000000,,2013-08-08 19:55:00,
2013-08-08 16:02:00,85.0,73.0,-100.00,SW,231,1.0,8.0,68,0.00,,,0.00,299.000000,,2013-08-08 20:02:00,
2013-08-08 16:32:00,87.0,74.0,-100.00,SW,227,1.0,8.0,66,0.00,,,0.00,306.000000,,2013-08-08 20:32:00,
2013-08-08 16:42:00,88.0,73.0,-100.00,WNW,300,3.0,7.0,62,0.00,,,0.00,838.000000,,2013-08-08 20:42:00,
2013-08-08 16:52:00,88.0,73.0,-100.00,South,171,4.0,8.0,61,0.00,,,0.00,782.000000,,2013-08-08 20:52:00,
2013-08-08 17:01:00,89.0,74.0,-100.00,South,184,2.0,7.0,61,0.00,,,0.00,236.000000,,2013-08-08 21:01:00,
2013-08-08 17:25:00,88.0,74.0,-100.00,SW,235,2.0,6.0,63,0.00,,,0.00,102.000000,,2013-08-08 21:25:00,
2013-08-08 17:45:00,86.0,75.0,-100.00,SW,227,4.0,8.0,70,0.00,,,0.00,192.000000,,2013-08-08 21:45:00,
2013-08-08 18:47:00,85.0,73.0,-100.00,South,180,2.0,6.0,67,0.00,,,0.00,367.000000,,2013-08-08 22:47:00,
2013-08-08 18:56:00,85.0,72.0,-100.00,SW,222,3.0,6.0,66,0.00,,,0.00,329.000000,,2013-08-08 22:56:00,
2013-08-08 19:37:00,84.0,74.0,-100.00,South,175,0.0,1.0,71,0.00,,,0.00,118.000000,,2013-08-08 23:37:00,
2013-08-08 19:46:00,83.0,73.0,-100.00,SE,130,2.0,5.0,72,0.00,,,0.00,88.000000,,2013-08-08 23:46:00,
2013-08-08 19:54:00,82.0,74.0,-100.00,SE,130,1.0,4.0,76,0.00,,,0.00,54.000000,,2013-08-08 23:54:00,
2013-08-08 20:05:00,81.0,73.0,-100.00,SW,224,0.0,4.0,77,0.00,,,0.00,37.000000,,2013-08-09 00:05:00,
2013-08-08 20:15:00,80.0,73.0,-100.00,SSE,166,1.0,3.0,79,0.00,,,0.00,28.000000,,2013-08-09 00:15:00,
2013-08-08 20:24:00,80.0,74.0,-100.00,SSE,167,0.0,1.0,81,0.00,,,0.00,19.000000,,2013-08-09 00:24:00,
2013-08-08 20:45:00,78.0,73.0,-100.00,NNE,29,2.0,6.0,86,0.00,,,0.00,0.000000,,2013-08-09 00:45:00,
2013-08-08 21:03:00,77.0,73.0,-100.00,NNE,27,4.0,6.0,88,0.00,,,0.00,0.000000,,2013-08-09 01:03:00,
2013-08-08 21:25:00,76.0,72.0,-100.00,NNE,30,2.0,5.0,88,0.00,,,0.00,0.000000,,2013-08-09 01:25:00,
2013-08-08 22:04:00,71.0,69.0,-100.00,NW,321,1.0,6.0,94,1.06,,,1.06,0.000000,,2013-08-09 02:04:00,
2013-08-08 22:55:00,72.0,70.0,-100.00,WNW,303,4.0,5.0,95,1.94,,,2.28,0.000000,,2013-08-09 02:55:00,
2013-08-08 23:46:00,71.0,69.0,-100.00,SSE,152,0.0,2.0,95,0.07,,,2.33,0.000000,,2013-08-09 03:46:00,